Home > Weather > Boise > Past weeks

Flag for USA Past Weather in Boise, Idaho, USA — Yesterday and Last 2 Weeks

Now
65 °F

Passing clouds.


Feels Like: 65 °F
Forecast: 50 / 75 °F
Wind: 8 mph from Northwest

Location: Boise Air Terminal

Current Time: May 30, 2016 at 1:00:42 AM

Latest Report: May 29, 2016 at 11:53 PM


Visibility: 10 mi

Pressure: 29.92 "Hg (27.17 "Hg at 822m altitude)

Humidity: 34%

Dew Point: 36 °F

Location of BoiseLocation

Past Weather in Boise — Graph

°F

Boise Temperature Yesterday

Maximum temperature yesterday: 82 °F (at 3:53 PM)
Minimum temperature yesterday: 50 °F (at 5:53 AM)
Average temperature yesterday: 66 °F

High & Low Weather Summary for the Past Weeks

 TemperatureHumidityPressure
High82 °F (May 29, 3:53 PM)96% (May 20, 11:53 PM)30.13 "Hg (May 20, 11:53 PM)
Low44 °F (May 28, 5:53 AM)16% (May 29, 11:53 AM)29.58 "Hg (May 20, 3:53 PM)
Average59 °F52%29.88 "Hg
* Reported May 14 11:53 PM — May 29 11:53 PM, Boise, Weather by CustomWeather, © 2016

Note: Actual official high and low records may vary slightly from our data, if they occured in-between our weather recording intervals... More about our weather records

Advertising

Boise Weather History for the Previous 24 Hours

Scroll right to see more
 ConditionsComfort  
Time TempWeatherWind HumidityBarometerVisibility
11:53 PM
Sun, May 29
65 °FPassing clouds.8 mph34%29.92 "Hg10 mi
10:53 PM65 °FScattered clouds.8 mph33%29.90 "Hg10 mi
9:53 PM73 °FSunny.3 mph22%29.87 "Hg10 mi
8:53 PM75 °FSunny.5 mph19%29.85 "Hg10 mi
7:53 PM78 °FSunny.8 mph18%29.85 "Hg10 mi
6:53 PM79 °FSunny.12 mph17%29.86 "Hg10 mi
5:53 PM79 °FSunny.7 mph17%29.87 "Hg10 mi
4:53 PM78 °FSunny.12 mph17%29.88 "Hg10 mi
3:53 PM82 °FSunny.12 mph16%29.89 "Hg10 mi
2:53 PM79 °FSunny.9 mph16%29.90 "Hg10 mi
1:53 PM78 °FSunny.6 mph16%29.91 "Hg10 mi
12:53 PM77 °FSunny.10 mph16%29.93 "Hg10 mi
11:53 AM76 °FSunny.9 mph16%29.95 "Hg10 mi
10:53 AM72 °FSunny.10 mph23%29.97 "Hg10 mi
9:53 AM67 °FSunny.12 mph27%29.99 "Hg10 mi
8:53 AM62 °FSunny.13 mph34%29.99 "Hg10 mi
7:53 AM56 °FClear.9 mph44%29.98 "Hg10 mi
6:53 AM52 °FClear.12 mph50%29.98 "Hg10 mi
6:03 AM50 °FHaze.8 mph54%30.02 "Hg4 mi
5:53 AM50 °FClear.9 mph54%29.98 "Hg10 mi
4:53 AM51 °FClear.9 mph54%29.98 "Hg10 mi
3:53 AM52 °FClear.5 mph50%29.98 "Hg10 mi
2:53 AM54 °FClear.6 mph49%29.97 "Hg10 mi
1:53 AM53 °FClear.7 mph52%29.98 "Hg10 mi
Weather by CustomWeather, © 2016

See weather overviewHow to use our weather pages